TITAN 3C TRANSTAGE R/B, 3692

Orbit data source: Space-Track

TITAN 3C TRANSTAGE R/B, 3692 is space debris in GEO originally from a launch on Sun, 09 Feb 1969 UTC launched from the Air Force Eastern Test Range (AFETR). Debris objects in space refer to the collection of defunct objects orbiting the Earth. Examples of debris include non-operational satellites, rocket bodies, and fragments generated from explosions, collisions, or faulty payload assembly.

Loading next visibility...
Identifier
3692, 1969-013B
Orbit
GEO
Country
Flag of USUS
Related business
Manufacturer
Martin Marietta
Mission
Spacecraft
Bus & Motor
TRANSTAGE, Unknown motor
Mass
2,028 kg wet, 2,028 kg dry
Launch date (UTC)
1969-02-09 (57 years ago)
Launch vehicle
Unknown
Launch site
Air Force Eastern Test Range (AFETR)
Object type
Payload
Rocket body
Debris
Shape & HBR
Unknown
Radar Cross Section
Large (>1 m²)

Expand to show TLE details & history
Last TLE update: 3 hours ago

TLE from 3 hours ago
0 TITAN 3C TRANSTAGE R/B
1  3692U 69013B   25308.20442803 -.00000055  00000-0  00000+0 0  9990
2  3692   0.7177  75.1337 0167134  36.7523 219.8578  0.97535514 40124
Epoch: 2025-11-04T04:54Z
TLE epoch observation values (Epoch: 2025-11-04T04:54:22.581Z)
Latitude
-0.67041°
Longitude
-146.79132°
Altitude
37,123.649 km
Speed
3.008 km/s
True Right ascension
22h 01m 59s
True Declination
0° 40' 11"
Sunlit
Object was in daylight at epoch
Visualization orbit readout
Latitude
Unknown
Longitude
Unknown
Altitude
Unknown
Speed
Unknown
Apparent Right ascension
Unknown
Apparent Declination
Unknown
Sunlit
N/A
Visualization observer readout
Local Sidereal Time
03:32:01
Azimuth
Unknown
Elevation
Unknown
Doppler factor
Unknown
Orbital elements
Apogee altitude
37,290.454 km
Perigee altitude
35,854.748 km
Semi-major axis
42,950.738 km
Eccentricity
0.01671
Inclination
0.7177°
RAAN
75.1337°
Arg. of periapsis
36.7523°
True anomaly
218.64984°
Mean anomaly
219.8578°
Eccentric anomaly
219.25189°
Mean motion
0.24383 °/min
Orbital period
1,476.44 mins
BSTAR
0
Loading maneuver chart data...
Computing Atmospheric mass density...

Documentation

Showing up to 5 results
|